Location: Newark
(51.3000°N, 178.2000°W)
Time: 01:02:07
(UTC+00:00)

ISS - Pass Details

Date: 16 May 2021
Orbit: 417 x 422 km, 51.6° (Epoch: 15 June)

Event Time Altitude Azimuth Distance (km) Brightness Sun altitude
Rises 13:14:25 0° 284° (WNW) 2,373 0.0 -17.0°
Reaches altitude 10° 13:16:33 10° 280° (W) 1,508 -1.1 -16.9°
Maximum altitude 13:19:51 54° 202° (SSW) 519 -3.7 -16.7°
Drops below altitude 10° 13:23:10 10° 124° (SE) 1,505 -1.1 -16.5°
Sets 13:25:17 0° 120° (ESE) 2,368 0.0 -16.4°
